EN

Hourly Weather Lyatohi

Today, 26 November, Thursday

Time Temperature Precipitation Wind Pressure Humidity
00:00 +4°C° 0.3 mm 3 mps 749 mmHg 96%
01:00 +4°C° 0.3 mm 3 mps 749 mmHg 96%
02:00 +4°C° 0.3 mm 3 mps 749 mmHg 97%
03:00 +4°C° 0.1 mm 3 mps 749 mmHg 97%
04:00 +5°C° 0.1 mm 3 mps 749 mmHg 96%
05:00 +5°C° 0.1 mm 3 mps 748 mmHg 96%
06:00 +5°C° 0 mm 3 mps 748 mmHg 96%
07:00 +5°C° 0 mm 3 mps 748 mmHg 96%
08:00 +5°C° 0 mm 3 mps 749 mmHg 96%
09:00 +5°C° 0 mm 3 mps 748 mmHg 91%
10:00 +5°C° 0 mm 4 mps 748 mmHg 87%
11:00 +5°C° 0 mm 4 mps 748 mmHg 83%
12:00 +4°C° 0 mm 4 mps 747 mmHg 79%
13:00 +4°C° 0 mm 4 mps 747 mmHg 75%
14:00 +3°C° 0 mm 4 mps 747 mmHg 71%
15:00 +3°C° 0 mm 4 mps 747 mmHg 73%
16:00 +1°C° 0 mm 4 mps 746 mmHg 76%
17:00 0°C° 0 mm 4 mps 746 mmHg 78%
18:00 0°C° 0 mm 4 mps 746 mmHg 81%
19:00 -1°C° 0 mm 4 mps 746 mmHg 83%
20:00 -1°C° 0 mm 4 mps 745 mmHg 85%
21:00 -1°C° 0 mm 4 mps 745 mmHg 86%
22:00 -1°C° 0 mm 4 mps 745 mmHg 88%
23:00 -2°C° 0 mm 4 mps 744 mmHg 89%

Tomorrow, 27 November, Friday

Time Temperature Precipitation Wind Pressure Humidity
00:00 -1°C° 0 mm 4 mps 744 mmHg 89%
01:00 -1°C° 0 mm 4 mps 744 mmHg 89%
02:00 -1°C° 0 mm 4 mps 744 mmHg 89%
03:00 -1°C° 0.1 mm 4 mps 743 mmHg 90%
04:00 -1°C° 0.1 mm 4 mps 742 mmHg 92%
05:00 -1°C° 0.1 mm 4 mps 742 mmHg 93%
06:00 -1°C° 0.5 mm 4 mps 742 mmHg 93%
07:00 0°C° 0.5 mm 4 mps 741 mmHg 93%
08:00 0°C° 0.5 mm 4 mps 741 mmHg 94%
09:00 +1°C° 0.4 mm 4 mps 741 mmHg 93%
10:00 +1°C° 0.4 mm 5 mps 741 mmHg 91%
11:00 +2°C° 0.4 mm 5 mps 741 mmHg 90%
12:00 +2°C° 0.5 mm 5 mps 741 mmHg 91%
13:00 +2°C° 0.5 mm 5 mps 741 mmHg 92%
14:00 +2°C° 0.5 mm 5 mps 741 mmHg 93%
15:00 +1°C° 0.5 mm 5 mps 741 mmHg 92%
16:00 0°C° 0.5 mm 5 mps 742 mmHg 90%
17:00 0°C° 0.5 mm 5 mps 742 mmHg 88%
18:00 -1°C° 0 mm 4 mps 742 mmHg 88%
19:00 -1°C° 0 mm 4 mps 743 mmHg 89%
20:00 -1°C° 0 mm 3 mps 743 mmHg 89%
21:00 -1°C° 0 mm 3 mps 744 mmHg 89%
22:00 -1°C° 0 mm 3 mps 744 mmHg 90%
23:00 -1°C° 0 mm 2 mps 744 mmHg 90%

Day after tomorrow, 28 November, Saturday

Time Temperature Precipitation Wind Pressure Humidity
00:00 -1°C° 0 mm 2 mps 745 mmHg 90%
01:00 -1°C° 0 mm 2 mps 745 mmHg 91%
02:00 -1°C° 0 mm 2 mps 746 mmHg 91%
03:00 -1°C° 0 mm 2 mps 746 mmHg 91%
04:00 -1°C° 0 mm 2 mps 746 mmHg 92%
05:00 -1°C° 0 mm 2 mps 747 mmHg 92%
06:00 -1°C° 0.1 mm 2 mps 747 mmHg 93%
07:00 -1°C° 0.1 mm 2 mps 747 mmHg 93%
08:00 -2°C° 0.1 mm 2 mps 748 mmHg 94%
09:00 -1°C° 0.1 mm 2 mps 748 mmHg 94%
10:00 -1°C° 0.1 mm 2 mps 749 mmHg 93%
11:00 +1°C° 0.1 mm 2 mps 749 mmHg 93%
12:00 +1°C° 0.2 mm 2 mps 749 mmHg 93%
13:00 +2°C° 0.2 mm 1 mps 750 mmHg 93%
14:00 +2°C° 0.2 mm 1 mps 750 mmHg 93%
15:00 +2°C° 0 mm 1 mps 750 mmHg 94%
16:00 +1°C° 0 mm 1 mps 751 mmHg 95%
17:00 +1°C° 0 mm 1 mps 751 mmHg 96%
18:00 +1°C° 0 mm 1 mps 751 mmHg 96%
19:00 +1°C° 0 mm 1 mps 751 mmHg 95%
20:00 +1°C° 0 mm 1 mps 752 mmHg 95%
21:00 -1°C° 0 mm 2 mps 752 mmHg 94%
22:00 -2°C° 0 mm 2 mps 752 mmHg 93%
23:00 -2°C° 0 mm 2 mps 753 mmHg 92%

29 November, Sunday

Time Temperature Precipitation Wind Pressure Humidity
00:00 -2°C° 0 mm 2 mps 753 mmHg 91%
01:00 -2°C° 0 mm 2 mps 753 mmHg 90%
02:00 -3°C° 0 mm 2 mps 753 mmHg 89%
03:00 -3°C° 0 mm 2 mps 753 mmHg 88%
04:00 -3°C° 0 mm 2 mps 754 mmHg 87%
05:00 -3°C° 0 mm 2 mps 754 mmHg 86%
06:00 -3°C° 0 mm 2 mps 754 mmHg 86%
07:00 -3°C° 0 mm 2 mps 754 mmHg 86%
08:00 -3°C° 0 mm 2 mps 754 mmHg 86%
09:00 -2°C° 0 mm 2 mps 754 mmHg 84%
10:00 -2°C° 0 mm 3 mps 754 mmHg 82%
11:00 -1°C° 0 mm 3 mps 754 mmHg 80%
12:00 -2°C° 0 mm 4 mps 753 mmHg 80%
13:00 -2°C° 0 mm 4 mps 753 mmHg 80%
14:00 -2°C° 0 mm 4 mps 752 mmHg 80%
15:00 -2°C° 0.1 mm 5 mps 752 mmHg 84%
16:00 -2°C° 0.1 mm 5 mps 752 mmHg 88%
17:00 -2°C° 0.1 mm 5 mps 751 mmHg 92%
18:00 -1°C° 0.3 mm 5 mps 751 mmHg 93%
19:00 0°C° 0.3 mm 5 mps 750 mmHg 94%
20:00 +1°C° 0.3 mm 5 mps 750 mmHg 95%
21:00 0°C° 0.5 mm 5 mps 750 mmHg 96%
22:00 0°C° 0.5 mm 5 mps 750 mmHg 96%
23:00 0°C° 0.5 mm 5 mps 749 mmHg 97%

30 November, Monday

Time Temperature Precipitation Wind Pressure Humidity
00:00 0°C° 0.3 mm 5 mps 749 mmHg 97%
01:00 0°C° 0.3 mm 4 mps 749 mmHg 96%
02:00 +1°C° 0.3 mm 4 mps 748 mmHg 96%
03:00 0°C° 0.6 mm 4 mps 748 mmHg 97%
04:00 0°C° 0.6 mm 4 mps 748 mmHg 97%
05:00 0°C° 0.6 mm 4 mps 748 mmHg 97%
06:00 0°C° 0.1 mm 3 mps 748 mmHg 95%
07:00 0°C° 0.1 mm 3 mps 748 mmHg 94%
08:00 -1°C° 0.1 mm 3 mps 748 mmHg 93%
09:00 -1°C° 0.1 mm 3 mps 749 mmHg 92%
10:00 -1°C° 0.1 mm 3 mps 749 mmHg 91%
11:00 -1°C° 0.1 mm 3 mps 749 mmHg 90%
12:00 -1°C° 0.1 mm 3 mps 750 mmHg 91%
13:00 -1°C° 0.1 mm 3 mps 750 mmHg 92%
14:00 -1°C° 0.1 mm 3 mps 750 mmHg 94%
15:00 -1°C° 0.2 mm 3 mps 750 mmHg 95%
16:00 -1°C° 0.2 mm 2 mps 751 mmHg 96%
17:00 -1°C° 0.2 mm 2 mps 751 mmHg 97%
18:00 -1°C° 0.1 mm 3 mps 751 mmHg 97%
19:00 0°C° 0.1 mm 3 mps 752 mmHg 96%
20:00 -1°C° 0.1 mm 4 mps 752 mmHg 96%
21:00 -1°C° 0 mm 4 mps 752 mmHg 95%
22:00 -2°C° 0 mm 4 mps 753 mmHg 94%
23:00 -2°C° 0 mm 4 mps 753 mmHg 94%

1 December, Tuesday

Time Temperature Precipitation Wind Pressure Humidity
00:00 -2°C° 0 mm 4 mps 754 mmHg 92%
01:00 -2°C° 0 mm 4 mps 754 mmHg 91%
02:00 -3°C° 0 mm 4 mps 754 mmHg 90%
03:00 -3°C° 0 mm 4 mps 754 mmHg 88%
04:00 -2°C° 0 mm 3 mps 754 mmHg 86%
05:00 -2°C° 0 mm 3 mps 755 mmHg 84%
06:00 -4°C° 0 mm 3 mps 755 mmHg 84%
07:00 -4°C° 0 mm 3 mps 755 mmHg 83%
08:00 -4°C° 0 mm 3 mps 755 mmHg 83%
09:00 -4°C° 0 mm 3 mps 755 mmHg 82%
10:00 -2°C° 0 mm 3 mps 755 mmHg 80%
11:00 -3°C° 0 mm 4 mps 755 mmHg 79%
12:00 -3°C° 0 mm 4 mps 755 mmHg 79%
13:00 -3°C° 0 mm 4 mps 755 mmHg 79%
14:00 -2°C° 0 mm 4 mps 755 mmHg 79%
15:00 -3°C° 0 mm 4 mps 755 mmHg 82%
16:00 -3°C° 0 mm 4 mps 755 mmHg 85%
17:00 -4°C° 0 mm 4 mps 755 mmHg 88%
18:00 -4°C° 0 mm 4 mps 755 mmHg 88%
19:00 -4°C° 0 mm 4 mps 755 mmHg 88%
20:00 -3°C° 0 mm 4 mps 755 mmHg 89%
21:00 -3°C° 0 mm 4 mps 755 mmHg 88%
22:00 -3°C° 0 mm 4 mps 755 mmHg 88%
23:00 -4°C° 0 mm 4 mps 754 mmHg 88%
Show more

We Need Your Consent

Meteoprog and our Service Providers may store and access personal data such as cookies, device identifiers or other similar technologies on your device and process such data to personalise content and ads, as well as provide social media features and to analyse the traffic.

  • Store and/or access information on your device

    Cookies, device identifiers or other information can be stored or accessed on your device for the purposes indicated above.

  • Personalised ads and content, ad and content measurement, audience insights, and products development

    Ads and content can be personalised based on a profile. More data can be added to better personalise ads and content. Ad and content performance can be measured. Insights about the audience who saw the ads and content can be derived. Such data can be used to develop or improve user’s experience, systems and software.

By clicking ‘I Agree’ you will allow the use of indicated cookies, device identifiers, web beacons or other similar technologies. Your settings can be changed in the browser on your device.

For certain purposes, legitimate interests may be relied on, rather than consent. You can read more about this in our Privacy and Cookie Policy.